Weather History for KMGW - July, 2012

Change the Weather History Date:

Thursday, July 26, 2012

  Actual Average Record
Temperature  
Mean Temperature 81 °F 73 °F  
Max Temperature 93 °F 83 °F 94 °F (1952)
Min Temperature 69 °F 63 °F 53 °F (1975)
Degree Days  
Heating Degree Days 0 0  
Month to date heating degree days 0 0  
Since 1 June heating degree days 19 31  
Since 1 July heating degree days 0 0  
Cooling Degree Days 16 8  
Month to date cooling degree days 344 208  
Year to date cooling degree days 703 437  
Since 1 June cooling degree days 526 370  
Growing Degree Days 30 (Base 50)    
Moisture  
Dew Point 70 °F    
Average Humidity 75    
Maximum Humidity 97    
Minimum Humidity 52    
Precipitation  
Precipitation 1.35 in 0.14 in 1.44 in (1960)
Month to date precipitation 3.47 3.96  
Year to date precipitation 17.55 25.26  
Sea Level Pressure  
Sea Level Pressure 29.80 in    
Wind  
Wind Speed 8 mph (SW)    
Max Wind Speed 30 mph    
Max Gust Speed 43 mph    
Visibility 7 miles    
Events Rain , Thunderstorm    
T = Trace of Precipitation, MM = Missing Value Source: NWS Daily Summary

Daily Weather History Graph

Daily Weather History Graph

Search for Another Location

Airport or City:

Trip Planner

Search our weather history database for the weather conditions in past years. The results will help you decide how hot, cold, wet, or windy it might be!

Date:

Astronomy

Jul. 26, 2012 Rise Set
Actual Time 6:13 AM EDT 8:37 PM EDT
Civil Twilight 5:43 AM EDT 9:08 PM EDT
Nautical Twilight 5:05 AM EDT 9:46 PM EDT
Astronomical Twilight 4:23 AM EDT 10:27 PM EDT
Moon 2:23 PM EDT (7/26) 12:04 AM EDT (7/26)
Length of Visible Light 15h 25m
Length of Day
14h 23m
First Quarter, 53% of the Moon is Illuminated
Jul 26
First Quarter
Aug 1
Full
Aug 9
Last Quarter
Aug 17
New
Aug 24
First Quarter

Hourly Weather History & Observations

Time (EDT) Temp. Heat Index Dew Point Humidity Pressure Visibility Wind Dir Wind Speed Gust Speed Precip Events Conditions
12:53 AM 75.0 °F - 64.0 °F 69% 29.81 in 10.0 mi South 3.5 mph - N/A   Clear
1:53 AM 77.0 °F - 66.9 °F 71% 29.80 in 10.0 mi SSW 4.6 mph - N/A   Scattered Clouds
2:53 AM 75.9 °F - 68.0 °F 76% 29.79 in 10.0 mi South 4.6 mph - N/A   Clear
3:53 AM 77.0 °F - 69.1 °F 76% 29.78 in 10.0 mi SSW 4.6 mph - N/A   Scattered Clouds
4:53 AM 78.1 °F - 71.1 °F 79% 29.78 in 10.0 mi SSW 6.9 mph - N/A   Mostly Cloudy
5:25 AM 77.0 °F - 71.6 °F 83% 29.85 in 8.0 mi WNW 9.2 mph 21.9 mph 0.00 in Rain Light Rain
5:31 AM 73.4 °F - 71.6 °F 94% 29.85 in 2.5 mi NW 9.2 mph 21.9 mph 0.10 in Rain Rain
5:46 AM 71.6 °F - 69.8 °F 94% 29.85 in 1.8 mi WSW 4.6 mph - 0.19 in Rain Heavy Rain
5:53 AM 73.0 °F - 71.1 °F 93% 29.82 in 1.2 mi SW 10.4 mph 25.3 mph 0.36 in Rain Heavy Rain
6:07 AM 71.6 °F - 69.8 °F 94% 29.84 in 3.0 mi SSW 5.8 mph - 0.12 in Rain Light Rain
6:53 AM 73.9 °F - 71.1 °F 91% 29.81 in 10.0 mi Calm Calm - 0.12 in   Mostly Cloudy
7:53 AM 75.9 °F - 72.0 °F 87% 29.82 in 8.0 mi South 4.6 mph - N/A   Partly Cloudy
8:53 AM 79.0 °F - 73.0 °F 82% 29.81 in 10.0 mi SSW 8.1 mph - N/A   Clear
9:53 AM 82.0 °F 87.4 °F 73.0 °F 74% 29.81 in 10.0 mi SSW 6.9 mph - N/A   Partly Cloudy
10:53 AM 86.0 °F 92.2 °F 72.0 °F 63% 29.79 in 10.0 mi Variable 6.9 mph - N/A   Clear
11:53 AM 88.0 °F 93.8 °F 71.1 °F 57% 29.77 in 10.0 mi SW 8.1 mph 18.4 mph N/A   Clear
12:53 PM 90.0 °F 95.4 °F 70.0 °F 52% 29.76 in 10.0 mi SW 13.8 mph 20.7 mph N/A   Clear
1:53 PM 90.0 °F 96.4 °F 71.1 °F 54% 29.75 in 10.0 mi SW 11.5 mph 19.6 mph N/A   Mostly Cloudy
2:53 PM 91.0 °F 98.2 °F 72.0 °F 53% 29.72 in 10.0 mi SSW 10.4 mph 23.0 mph N/A   Partly Cloudy
3:53 PM 91.9 °F 99.5 °F 72.0 °F 52% 29.67 in 10.0 mi SW 12.7 mph 21.9 mph N/A   Partly Cloudy
4:53 PM 91.0 °F 97.6 °F 71.1 °F 52% 29.69 in 10.0 mi SSW 9.2 mph 18.4 mph N/A   Scattered Clouds
5:53 PM 89.1 °F 95.0 °F 71.1 °F 55% 29.71 in 10.0 mi SW 6.9 mph 18.4 mph N/A   Clear
6:15 PM 82.4 °F 86.3 °F 69.8 °F 66% 29.75 in 1.2 mi WNW 26.5 mph 41.4 mph 0.06 in   Scattered Clouds
6:18 PM 73.4 °F - 66.2 °F 78% 29.81 in 0.2 mi WNW 24.2 mph 42.6 mph 0.21 in Rain Heavy Rain
6:25 PM 73.4 °F - 66.2 °F 78% 29.79 in 0.2 mi West 9.2 mph 42.6 mph 0.47 in Rain , Thunderstorm Heavy Thunderstorms and Rain
6:33 PM 71.6 °F - 68.0 °F 88% 29.81 in - North - - 0.68 in Thunderstorm Thunderstorm
6:45 PM 71.6 °F - 68.0 °F 88% 29.78 in 5.0 mi North - - 0.68 in Rain Light Rain
6:53 PM - - - N/A% 29.78 in 5.0 mi North - - 0.68 in Rain Light Rain
7:18 PM - - - N/A% 29.86 in 3.0 mi North - - N/A Rain Heavy Rain
7:19 PM - - - N/A% 29.86 in 3.0 mi WSW 8.1 mph 20.7 mph N/A Rain Heavy Rain
7:20 PM - - - N/A% 29.86 in 1.5 mi WSW 8.1 mph 20.7 mph N/A Rain , Thunderstorm Thunderstorms and Rain
7:53 PM - - - N/A% 29.85 in 1.5 mi WSW 8.1 mph 20.7 mph N/A Rain , Thunderstorm Thunderstorms and Rain
8:00 PM - - - N/A% 29.85 in - North - - N/A Rain , Thunderstorm Thunderstorms and Rain
8:04 PM - - - N/A% 29.85 in 6.0 mi SSW 9.2 mph - N/A Rain , Thunderstorm Light Thunderstorms and Rain
8:37 PM 69.8 °F - 68.0 °F 94% 29.86 in 5.0 mi SSW 9.2 mph - N/A Rain , Thunderstorm Light Thunderstorms and Rain
8:53 PM 69.1 °F - 68.0 °F 96% 29.82 in 5.0 mi SSW 9.2 mph - N/A Rain , Thunderstorm Light Thunderstorms and Rain
9:00 PM 69.8 °F - 68.0 °F 94% 29.83 in 6.0 mi South 8.1 mph - 0.02 in Rain , Thunderstorm Thunderstorms and Rain
9:17 PM 69.8 °F - 68.0 °F 94% 29.84 in 5.0 mi South 6.9 mph - 0.06 in Rain , Thunderstorm Thunderstorms and Rain
9:53 PM 70.0 °F - 68.0 °F 93% 29.83 in 6.0 mi SSW 8.1 mph - 0.14 in Rain , Thunderstorm Thunderstorms and Rain
10:53 PM 69.1 °F - 68.0 °F 96% 29.81 in 10.0 mi SSW 9.2 mph 18.4 mph 0.01 in   Partly Cloudy
11:53 PM 70.0 °F - 68.0 °F 93% 29.80 in 10.0 mi SSW 9.2 mph - 0.02 in Rain Light Rain